Погода в Баргузине

Россия / Республика Бурятия     53°36′59″N   109°37′47″E
темп.,
°C
ветер,
м/с
пор.,
м/с
влажн.,
%
обл.,
%
осадки,
мм/ч
давл.,
гПа
погр.,
м
25 июля, вс
вс2523:00+13ююз22813 0.0 101032
02:00+11юз228323 0.0 101122
05:00+11ююз118419 0.0 101012
08:00+15ссв117033 0.0 1010230
11:00+20ссв245458 0.0 1009630
14:00+23ссв234221 0.0 10071218
17:00+23всв224491 0.0 10071219
20:00+18юв226488 0.0 100816
26 июля, пн
пн2623:00+17юв1161100 0.0 101019
02:00+16юв116595 0.0 101016
05:00+14юв117171 0.0 101011
08:00+16св127193 0.0 101184
11:00+22св11507 0.0 1009694
14:00+25ссв124253 0.0 10071621
17:00+23ю114981 0.0 1007785
20:00+19ююв226483 0.1 100819
27 июля, вт
вт2723:00+16ююв226932 0.0 100921
02:00+15ююв227175 0.0 100919
05:00+16вюв116582 0.0 100820
08:00+19св245716 0.0 1008466
11:00+23ссв244669 0.0 10071232
14:00+23ссв134731 0.0 1005701
17:00+24всв134114 0.0 1004864
20:00+20ююв115713 0.0 100414
28 июля, ср
ср2823:00+16ююв22685 0.0 100522
02:00+15ююв227212 0.0 100515
05:00+14ююв217612 0.0 100515
08:00+20вюв01585 0.0 1004297
11:00+24ссз114521 0.0 10031268
14:00+26ссз11355 0.0 10011853
17:00+26ссз113824 0.0 10002041
20:00+20з01736 0.0 100111
29 июля, чт
чт2923:00+16ю11752 0.1 100213
02:00+15ююв11755 0.1 100211
05:00+14юв11755 0.0 100211
08:00+19ссв11625 0.0 1001273
11:00+24зсз23504 0.0 1001944
14:00+23зюз56462 0.0 1000780
17:00+20зюз57604 0.0 1002684
20:00+14зюз498555 0.0 1004469